Simultaneous Nadir Overpasses (SNOs) Predictions

Prediction of SNOs between GOES-17 and METOP-B Satellite Orbit:

Table of predicted SNOs for the next 14.0 days since TLE Epoch: 4/8/2023
Index Date Time (GOES-17) GOES-17 Lat,Lon METOP-B Lat,Lon Distance(km) Time Diff (sec)
1 04/08/2023 04:34:41 0.00,-104.73 -0.23,-105.78 119.82 80
2 04/09/2023 04:11:21 -0.00,-104.72 0.85,-100.78 448.68 80
3 04/10/2023 16:30:14 0.01,-104.76 0.12,-105.36 67.97 80
4 04/13/2023 04:31:15 -0.01,-104.70 -0.09,-104.95 29.22 80
5 04/15/2023 16:29:29 0.01,-104.73 -0.05,-104.54 22.16 80
6 04/18/2023 04:25:10 -0.01,-104.68 0.09,-104.13 62.03 80
7 04/19/2023 16:44:02 0.01,-104.72 0.91,-108.70 454.43 80
8 04/20/2023 16:26:03 0.01,-104.72 -0.19,-103.71 114.48 80
